Location: Durham
(54.7770°N, 1.5720°W)
Time: 13:00:18
(UTC+01:00)

ISS - Visible Passes

Search period start: 21 October 2014 00:00
Search period end: 30 October 2014 23:00
Orbit: 413 x 416 km, 51.6° (Epoch: 20 October)

Date Brightness Start Highest point End Pass type
(mag) Time Alt. Az. Time Alt. Az. Time Alt. Az.
21 Oct -2.0 19:15:02 10° W 19:18:09 36° SSW 19:20:31 15° SE visible
21 Oct -0.3 20:52:29 10° WSW 20:53:23 13° SW 20:53:23 13° SW visible
22 Oct -2.2 18:26:00 10° W 18:29:12 42° SSW 18:32:23 10° ESE visible
22 Oct -1.0 20:02:59 10° WSW 20:05:22 18° SSW 20:06:23 16° S visible
23 Oct -1.3 19:13:42 10° W 19:16:28 24° SSW 19:19:13 10° SSE visible
24 Oct -1.5 18:24:30 10° W 18:27:30 30° SSW 18:30:29 10° SE visible
24 Oct -0.1 20:03:17 10° SW 20:03:25 10° SW 20:03:33 10° SW visible
25 Oct -0.4 19:12:37 10° WSW 19:14:31 14° SW 19:16:25 10° S visible
26 Oct -0.7 17:23:03 10° WSW 17:25:33 20° SSW 17:28:02 10° SSE visible
28 Oct 0.0 17:22:19 10° SW 17:23:19 11° SW 17:24:19 10° SSW visible
